Location: Albany
(42.6526°N, 73.7562°W)
Time: 15:30:58
(UTC+00:00)

Cosmos 1606 - Pass Details

Date: 19 November 2019
Orbit: 504 x 528 km, 82.5° (Epoch: 08 December)

Event Time Altitude Azimuth Distance (km) Brightness Sun altitude
Rises 23:38:53 0° 196° (SSW) 2,600 6.5 -23.7°
Reaches altitude 10° 23:41:01 10° 200° (SSW) 1,717 5.6 -24.1°
Enters shadow 23:44:38 57° 273° (W) 600 3.2 -24.7°
